JA3VQW-13 Hirakata JP current weather conditions

sailwx.info

Wind from 291 at 2 knots gusting 4

Air temperature 25.6° C
Dewpoint 9.0° C

Last reported at 2015-Apr-28 05:26 UTC.
Time now 2015-Apr-28 06:53 UTC

Location: N 34°48' E 135°40'.
View on Google Maps.

See reports from other nearby stations

  
Tides and Currents Weather Stations Pressure Air Temp Water Temp Dewpoint Dewpoint Depression Visibility Wind Speed Wind Dir Waves Ship Positions
date/time (UTC)wind fromknots sea level pressurealtimeterstation pressurevisibilityair tempwater tempwave heightnotes
2015-Apr-28 05:26 291 2 gusting 4 25.6
2015-Apr-28 04:56 291 1 gusting 5 26.7
2015-Apr-28 04:26 135 26.7
2015-Apr-28 03:56 292 26.7
2015-Apr-28 03:26 221 25.6
2015-Apr-28 02:56 294 1 gusting 4 25.6
2015-Apr-28 02:26 171 24.4
2015-Apr-28 01:56 180 23.9
2015-Apr-28 01:26 153 22.8
2015-Apr-28 00:56 135 22.8
2015-Apr-28 00:26 292 22.8
2015-Apr-27 23:56 292 21.7
2015-Apr-27 23:26 292 20.6
2015-Apr-27 22:56 292 19.4
2015-Apr-27 22:26 292 18.9
2015-Apr-27 21:56 292 18.3
2015-Apr-27 21:26 248 17.2
2015-Apr-27 20:56 225 16.7
2015-Apr-27 20:26 225 16.7
2015-Apr-27 19:56 315 16.7
2015-Apr-27 19:26 041 16.7
2015-Apr-27 18:56 180 16.7
2015-Apr-27 18:26 288 17.2
2015-Apr-27 17:56 258 17.2
2015-Apr-27 17:26 135 17.2
2015-Apr-27 16:56 045 17.8
2015-Apr-27 16:26 045 18.3
2015-Apr-27 15:56 045 18.3
2015-Apr-27 15:26 315 18.9
2015-Apr-27 14:56 315 18.9
2015-Apr-27 14:26 292 19.4
2015-Apr-27 13:56 233 20.0
2015-Apr-27 13:26 247 20.0
2015-Apr-27 12:56 230 20.0
2015-Apr-27 12:26 237 20.6
2015-Apr-27 11:56 185 20.6
2015-Apr-27 11:26 275 21.1
2015-Apr-27 10:56 283 4 gusting 7 21.1
2015-Apr-27 10:26 288 2 gusting 4 21.7
2015-Apr-27 09:56 292 2 gusting 5 21.7
2015-Apr-27 09:26 288 2 gusting 6 22.8
2015-Apr-27 08:56 281 4 gusting 6 24.4
2015-Apr-27 08:26 290 4 gusting 6 25.0
2015-Apr-27 07:56 309 4 gusting 6 26.1
2015-Apr-27 07:26 300 5 gusting 5 27.2
2015-Apr-27 06:56 294 5 gusting 6 27.2
2015-Apr-27 06:26 256 4 gusting 4 27.8
2015-Apr-27 05:56 281 1 gusting 2 27.8
2015-Apr-27 05:26 291 5 gusting 6 28.3
2015-Apr-27 04:56 291 4 gusting 2 27.2
2015-Apr-27 04:26 301 2 gusting 6 27.8
2015-Apr-27 03:56 233 26.7
2015-Apr-27 03:26 282 4 gusting 7 26.7
2015-Apr-27 02:56 290 4 gusting 6 26.7
2015-Apr-27 02:26 286 2 gusting 5 24.4
2015-Apr-27 01:56 332 2 gusting 6 23.3
2015-Apr-27 01:26 255 4 gusting 5 22.8
2015-Apr-27 00:56 278 2 gusting 5 21.7
2015-Apr-27 00:26 285 21.1
2015-Apr-26 23:56 270 20.6
2015-Apr-26 23:26 180 19.4
2015-Apr-26 22:56 248 18.3
2015-Apr-26 22:26 248 16.7
2015-Apr-26 21:56 248 15.6
2015-Apr-26 21:26 248 15.0
2015-Apr-26 20:56 248 14.4
2015-Apr-26 20:26 248 14.4
2015-Apr-26 20:02 248 15.0
2015-Apr-26 19:56 248 15.0
2015-Apr-26 19:32 248 15.0
2015-Apr-26 19:26 248 15.0
2015-Apr-26 18:56 248 15.6
2015-Apr-26 18:26 248 15.6
2015-Apr-26 17:56 135 15.6
2015-Apr-26 17:26 135 16.1
2015-Apr-26 16:56 248 16.1
2015-Apr-26 16:26 315 16.7
2015-Apr-26 15:56 135 16.7
2015-Apr-26 15:26 158 16.7
2015-Apr-26 14:56 135 17.2
2015-Apr-26 14:26 163 17.2
2015-Apr-26 13:56 135 17.8
2015-Apr-26 13:26 135 0 gusting 2 18.3
2015-Apr-26 12:56 315 19.4
2015-Apr-26 12:26 292 19.4
2015-Apr-26 11:56 276 1 gusting 1 20.0
2015-Apr-26 11:26 279 2 gusting 5 20.0
2015-Apr-26 10:56 278 20.6
2015-Apr-26 10:26 280 4 gusting 6 20.6
2015-Apr-26 09:56 273 1 gusting 5 21.1
2015-Apr-26 09:26 240 1 gusting 2 22.2
2015-Apr-26 09:17 177 2 gusting 6 22.8
2015-Apr-26 08:56 184 1 gusting 5 23.3
2015-Apr-26 08:26 265 1 gusting 5 24.4
2015-Apr-26 07:56 271 2 gusting 6 25.6
2015-Apr-26 07:26 293 2 gusting 6 26.7
2015-Apr-26 06:56 211 2 gusting 4 26.7
2015-Apr-26 06:26 251 1 gusting 2 27.2